User: anonymous   Login
Location: Unspecified
(0.0000°N, 0.0000°E)
Time: 17:40:24
(UTC+00:00)
Language:

Cosmos 2361 - Orbit

View from above orbital plane
View from above orbital plane
View from above satellite
View from above satellite

Ground track
Ground track

The orbit data is extracted from the following two-line orbital elements,

1 25590U 98076A   18200.13121227  .00000038  00000-0  25418-4 0  9996
2 25590  82.9335 182.6063 0030575 219.3710 188.9683 13.72951715980407
Epoch (UTC): 19 July 2018 03:08:56
Eccentricity: 0.0030575
inclination: 82.9335°
perigee height: 966 km
apogee height: 1011 km
right ascension of ascending node: 182.6063°
argument of perigee: 219.3710°
revolutions per day: 13.72951715
mean anomaly at epoch: 188.9683°
orbit number at epoch: 98040

The dashed part of the orbit path shows where the satellite is in the earth's shadow,  

DLR